Simultaneous Nadir Overpasses (SNOs) Predictions

Prediction of SNOs between GOES-16 and NOAA-19 Satellite Orbit:

Table of predicted SNOs for the next 14.0 days since TLE Epoch: 5/28/2022
Index Date Time (GOES-16) GOES-16 Lat,Lon NOAA-19 Lat,Lon Distance(km) Time Diff (sec)
1 05/29/2022 13:03:19 0.05, -75.20 0.93, -79.11 445.59 80
2 05/30/2022 12:51:28 0.05, -75.20 0.28, -76.22 115.95 80
3 05/31/2022 12:36:58 0.04, -75.20 -0.37, -73.33 213.78 80
4 06/03/2022 01:00:14 -0.03, -75.20 -0.74, -78.21 344.46 80
5 06/04/2022 00:48:25 -0.03, -75.20 -0.04, -75.33 14.55 80
6 06/05/2022 00:33:55 -0.03, -75.21 0.61, -72.44 315.95 80
7 06/07/2022 12:57:10 0.02, -75.25 0.48, -77.33 236.69 80
8 06/08/2022 12:42:40 0.02, -75.26 -0.19, -74.44 94.41 80
9 06/09/2022 12:30:49 0.02, -75.28 -0.86, -71.55 425.57 80
10 06/11/2022 01:05:57 -0.02, -75.29 -0.98, -79.32 461.30 80
